Location: *
(49.9853°N, 3.5569°E)
Time: 05:04:12
(UTC+00:00)

Cosmos 1954 Rocket - Pass Details

Date: 22 September 2019
Orbit: 753 x 781 km, 74.0° (Epoch: 15 October)

Event Time Altitude Azimuth Distance (km) Brightness Sun altitude
Rises 19:24:25 0° 334° (NNW) 3,244 8.0 -16.5°
Reaches altitude 10° 19:26:49 10° 333° (NNW) 2,309 7.2 -16.9°
Maximum altitude 19:32:02 75° 250° (WSW) 791 4.1 -17.6°
Enters shadow 19:36:07 17° 166° (SSE) 1,867 5.7 -18.2°
